• In Netherlands
  • List of Countries
  • For 7 days
  • Water Temperature
  • Satellite Maps
  • Weather Map
  • Weather Widgets
  • user-avatar
    Login

    Hourly Weather Primorsko

    Today, 23 August, Wednesday

    Time Temperature Precipitation Wind Pressure Humidity
    00:00 +17°C° 0 mm 2 mps 760 mmHg 68%
    01:00 +17°C° 0 mm 2 mps 760 mmHg 68%
    02:00 +17°C° 0 mm 2 mps 760 mmHg 68%
    03:00 +17°C° 0 mm 2 mps 760 mmHg 68%
    04:00 +16°C° 0 mm 2 mps 760 mmHg 69%
    05:00 +16°C° 0 mm 2 mps 760 mmHg 69%
    06:00 +18°C° 0 mm 2 mps 760 mmHg 63%
    07:00 +20°C° 0 mm 2 mps 760 mmHg 56%
    08:00 +24°C° 0 mm 2 mps 761 mmHg 50%
    09:00 +25°C° 0 mm 2 mps 761 mmHg 44%
    10:00 +27°C° 0 mm 2 mps 761 mmHg 38%
    11:00 +29°C° 0 mm 1 mps 761 mmHg 32%
    12:00 +29°C° 0 mm 2 mps 761 mmHg 31%
    13:00 +30°C° 0 mm 2 mps 761 mmHg 29%
    14:00 +31°C° 0 mm 3 mps 761 mmHg 28%
    15:00 +30°C° 0 mm 3 mps 761 mmHg 31%
    16:00 +29°C° 0 mm 4 mps 760 mmHg 33%
    17:00 +28°C° 0 mm 4 mps 760 mmHg 36%
    18:00 +26°C° 0 mm 4 mps 760 mmHg 44%
    19:00 +23°C° 0 mm 4 mps 761 mmHg 52%
    20:00 +20°C° 0 mm 3 mps 761 mmHg 61%
    21:00 +20°C° 0 mm 3 mps 761 mmHg 62%
    22:00 +20°C° 0 mm 2 mps 761 mmHg 62%
    23:00 +19°C° 0 mm 2 mps 762 mmHg 63%

    Tomorrow, 24 August, Thursday

    Time Temperature Precipitation Wind Pressure Humidity
    00:00 +19°C° 0 mm 2 mps 762 mmHg 61%
    01:00 +19°C° 0 mm 2 mps 762 mmHg 60%
    02:00 +19°C° 0 mm 2 mps 762 mmHg 58%
    03:00 +19°C° 0 mm 2 mps 762 mmHg 57%
    04:00 +18°C° 0 mm 2 mps 762 mmHg 57%
    05:00 +18°C° 0 mm 2 mps 762 mmHg 56%
    06:00 +20°C° 0 mm 3 mps 762 mmHg 50%
    07:00 +22°C° 0 mm 3 mps 763 mmHg 44%
    08:00 +24°C° 0 mm 3 mps 763 mmHg 37%
    09:00 +26°C° 0 mm 3 mps 763 mmHg 34%
    10:00 +28°C° 0 mm 3 mps 763 mmHg 30%
    11:00 +29°C° 0 mm 2 mps 763 mmHg 26%
    12:00 +30°C° 0 mm 3 mps 763 mmHg 24%
    13:00 +31°C° 0 mm 3 mps 763 mmHg 22%
    14:00 +33°C° 0 mm 3 mps 763 mmHg 20%
    15:00 +31°C° 0 mm 3 mps 763 mmHg 22%
    16:00 +30°C° 0 mm 4 mps 763 mmHg 24%
    17:00 +30°C° 0 mm 4 mps 763 mmHg 26%
    18:00 +27°C° 0 mm 4 mps 763 mmHg 37%
    19:00 +24°C° 0 mm 3 mps 763 mmHg 48%
    20:00 +21°C° 0 mm 3 mps 764 mmHg 58%
    21:00 +20°C° 0 mm 2 mps 764 mmHg 61%
    22:00 +20°C° 0 mm 2 mps 764 mmHg 65%
    23:00 +20°C° 0 mm 1 mps 765 mmHg 68%

    Day after tomorrow, 25 August, Friday

    Time Temperature Precipitation Wind Pressure Humidity
    00:00 +20°C° 0 mm 1 mps 765 mmHg 70%
    01:00 +20°C° 0 mm 1 mps 765 mmHg 72%
    02:00 +19°C° 0 mm 1 mps 765 mmHg 74%
    03:00 +19°C° 0 mm 1 mps 765 mmHg 75%
    04:00 +19°C° 0 mm 1 mps 765 mmHg 76%
    05:00 +19°C° 0 mm 1 mps 765 mmHg 77%
    06:00 +20°C° 0 mm 2 mps 765 mmHg 69%
    07:00 +23°C° 0 mm 2 mps 765 mmHg 61%
    08:00 +25°C° 0 mm 2 mps 766 mmHg 53%
    09:00 +27°C° 0 mm 3 mps 766 mmHg 47%
    10:00 +28°C° 0 mm 3 mps 766 mmHg 40%
    11:00 +30°C° 0 mm 4 mps 766 mmHg 34%
    12:00 +30°C° 0 mm 4 mps 765 mmHg 33%
    13:00 +30°C° 0 mm 5 mps 765 mmHg 32%
    14:00 +32°C° 0 mm 5 mps 765 mmHg 30%
    15:00 +30°C° 0 mm 5 mps 765 mmHg 33%
    16:00 +29°C° 0 mm 5 mps 764 mmHg 35%
    17:00 +28°C° 0 mm 5 mps 764 mmHg 38%
    18:00 +26°C° 0 mm 5 mps 765 mmHg 48%
    19:00 +23°C° 0 mm 4 mps 765 mmHg 59%
    20:00 +21°C° 0 mm 4 mps 765 mmHg 69%
    21:00 +20°C° 0 mm 3 mps 765 mmHg 73%
    22:00 +20°C° 0 mm 3 mps 765 mmHg 76%
    23:00 +19°C° 0 mm 2 mps 765 mmHg 79%

    26 August, Saturday

    Time Temperature Precipitation Wind Pressure Humidity
    00:00 +19°C° 0 mm 2 mps 765 mmHg 80%
    01:00 +19°C° 0 mm 2 mps 764 mmHg 81%
    02:00 +19°C° 0 mm 2 mps 764 mmHg 82%
    03:00 +18°C° 0 mm 2 mps 764 mmHg 83%
    04:00 +18°C° 0 mm 2 mps 764 mmHg 84%
    05:00 +18°C° 0 mm 3 mps 764 mmHg 85%
    06:00 +20°C° 0 mm 3 mps 764 mmHg 77%
    07:00 +22°C° 0 mm 3 mps 764 mmHg 68%
    08:00 +25°C° 0 mm 4 mps 764 mmHg 59%
    09:00 +27°C° 0 mm 4 mps 764 mmHg 53%
    10:00 +28°C° 0 mm 5 mps 764 mmHg 47%
    11:00 +30°C° 0 mm 5 mps 764 mmHg 42%
    12:00 +30°C° 0 mm 5 mps 764 mmHg 40%
    13:00 +32°C° 0 mm 5 mps 763 mmHg 39%
    14:00 +32°C° 0 mm 5 mps 763 mmHg 37%
    15:00 +30°C° 0 mm 5 mps 763 mmHg 40%
    16:00 +29°C° 0 mm 5 mps 763 mmHg 42%
    17:00 +28°C° 0 mm 5 mps 763 mmHg 45%
    18:00 +26°C° 0 mm 5 mps 763 mmHg 56%
    19:00 +23°C° 0 mm 4 mps 763 mmHg 67%
    20:00 +21°C° 0 mm 4 mps 763 mmHg 79%
    21:00 +21°C° 0 mm 4 mps 763 mmHg 82%
    22:00 +20°C° 0 mm 4 mps 763 mmHg 84%
    23:00 +20°C° 0 mm 3 mps 763 mmHg 87%

    27 August, Sunday

    Time Temperature Precipitation Wind Pressure Humidity
    00:00 +20°C° 0 mm 3 mps 763 mmHg 88%
    01:00 +19°C° 0 mm 3 mps 762 mmHg 89%
    02:00 +19°C° 0 mm 3 mps 762 mmHg 89%
    03:00 +19°C° 0 mm 3 mps 762 mmHg 90%
    04:00 +19°C° 0 mm 3 mps 762 mmHg 90%
    05:00 +19°C° 0 mm 3 mps 761 mmHg 90%
    06:00 +20°C° 0 mm 3 mps 762 mmHg 81%
    07:00 +22°C° 0 mm 3 mps 762 mmHg 72%
    08:00 +25°C° 0 mm 4 mps 762 mmHg 63%
    09:00 +27°C° 0 mm 4 mps 762 mmHg 54%
    10:00 +29°C° 0 mm 5 mps 761 mmHg 46%
    11:00 +30°C° 0 mm 5 mps 761 mmHg 38%
    12:00 +32°C° 0 mm 6 mps 761 mmHg 36%
    13:00 +32°C° 0 mm 6 mps 760 mmHg 35%
    14:00 +32°C° 0 mm 6 mps 760 mmHg 34%
    15:00 +32°C° 0 mm 6 mps 760 mmHg 36%
    16:00 +30°C° 0 mm 6 mps 760 mmHg 39%
    17:00 +29°C° 0 mm 6 mps 760 mmHg 42%
    18:00 +27°C° 0 mm 5 mps 760 mmHg 53%
    19:00 +25°C° 0 mm 4 mps 760 mmHg 65%
    20:00 +21°C° 0 mm 3 mps 760 mmHg 76%
    21:00 +21°C° 0 mm 3 mps 760 mmHg 79%
    22:00 +21°C° 0 mm 3 mps 760 mmHg 82%
    23:00 +20°C° 0 mm 3 mps 760 mmHg 85%

    28 August, Monday

    Time Temperature Precipitation Wind Pressure Humidity
    00:00 +20°C° 0 mm 3 mps 759 mmHg 85%
    01:00 +20°C° 0 mm 3 mps 759 mmHg 85%
    02:00 +20°C° 0 mm 3 mps 759 mmHg 85%
    03:00 +19°C° 0 mm 3 mps 759 mmHg 84%
    04:00 +19°C° 0 mm 3 mps 759 mmHg 83%
    05:00 +19°C° 0 mm 3 mps 758 mmHg 82%
    06:00 +21°C° 0 mm 3 mps 758 mmHg 72%
    07:00 +24°C° 0 mm 3 mps 759 mmHg 61%
    08:00 +26°C° 0 mm 3 mps 759 mmHg 51%
    09:00 +28°C° 0 mm 4 mps 758 mmHg 43%
    10:00 +30°C° 0 mm 4 mps 758 mmHg 36%
    11:00 +33°C° 0 mm 4 mps 758 mmHg 28%
    12:00 +34°C° 0 mm 5 mps 758 mmHg 27%
    13:00 +34°C° 0 mm 5 mps 757 mmHg 26%
    14:00 +35°C° 0 mm 5 mps 757 mmHg 25%
    15:00 +34°C° 0 mm 5 mps 757 mmHg 27%
    16:00 +33°C° 0 mm 5 mps 757 mmHg 29%
    17:00 +32°C° 0 mm 4 mps 756 mmHg 32%
    18:00 +29°C° 0 mm 3 mps 757 mmHg 42%
    19:00 +26°C° 0 mm 3 mps 757 mmHg 52%
    20:00 +24°C° 0 mm 2 mps 757 mmHg 62%
    21:00 +23°C° 0 mm 2 mps 757 mmHg 62%
    22:00 +23°C° 0 mm 1 mps 757 mmHg 62%
    23:00 +23°C° 0 mm 1 mps 757 mmHg 63%
    Show more